Temperature
17 18 18 18 15 12 14 15 15 16 18 20 21 21 20 20 20 21 21 21 21 21 20 19 18 17 17 17 17 16 15 15 15 15 15 14 14 14 15 15 14 13 13 13 13 13 13 13 13
17 17 18 17 13 13 13 14 15 17 19 20 21 21 21 21 21 21 21 20 20 21 20 20 19 18 18 18 17 17 16 15 14 14 14 14 14 15 15 15 14 13 13 13 13 13 13 13 14
17 17 17 13 12 13 15 15 15 17 19 20 21 21 21 21 22 22 21 21 20 20 20 20 20 19 18 18 18 18 16 15 14 14 14 14 14 15 15 15 15 15 14 14 14 14 14 14 14
16 16 15 12 13 13 14 16 16 16 19 20 20 20 21 21 22 22 21 21 20 20 20 20 20 20 19 19 19 18 17 16 14 14 14 14 15 15 15 15 15 15 15 14 14 14 14 14 14
16 16 12 12 12 13 13 15 16 16 17 19 20 19 21 21 22 22 21 21 20 19 19 19 19 19 19 19 19 18 17 16 15 15 14 14 15 15 15 15 15 15 15 14 14 14 14 14 14
15 12 11 11 13 13 13 16 17 17 17 19 19 19 21 22 22 22 21 20 19 19 19 19 19 19 19 19 19 19 18 17 16 16 15 15 15 15 15 15 15 15 15 14 14 14 14 14 14
13 10 11 11 13 13 14 16 17 17 17 19 20 19 21 21 21 21 21 20 19 18 18 19 19 19 19 19 19 19 18 17 17 16 16 15 15 15 15 15 15 15 15 14 14 14 14 14 14
14 10 11 11 12 13 15 17 18 18 18 19 19 19 21 21 21 20 20 19 18 18 18 18 19 19 19 19 19 18 18 17 17 16 16 15 15 15 15 15 15 15 14 14 14 13 14 14 14
13 10 10 11 12 14 15 16 18 18 18 19 19 20 20 21 20 20 19 18 18 17 18 18 18 18 19 19 19 18 18 17 17 16 16 15 15 15 14 14 14 14 14 13 13 13 14 14 13
12 9 10 12 12 14 15 16 17 17 17 18 18 18 20 20 20 20 19 19 18 18 18 18 18 18 18 18 18 18 18 17 17 16 15 15 15 14 14 14 14 14 13 13 13 13 13 13 13
11 10 11 13 14 15 15 15 16 16 16 17 17 17 18 18 19 19 19 20 20 19 18 18 17 17 17 17 18 18 18 18 17 16 16 15 14 14 14 13 13 13 13 13 13 13 13 13 13
10 11 12 14 15 15 15 15 15 16 17 17 17 17 17 17 17 18 19 19 19 19 19 18 17 17 17 17 17 17 17 18 18 17 16 15 15 14 14 13 13 13 13 13 13 13 13 13 13
10 12 13 14 14 14 14 14 14 15 16 17 17 17 17 17 17 17 17 17 18 18 18 18 18 17 17 17 16 16 17 17 18 18 17 16 15 14 14 13 13 13 13 13 13 12 12 12 12
11 12 13 13 13 14 13 13 13 14 16 16 16 17 17 17 17 17 17 17 17 18 18 18 18 17 17 17 17 17 17 17 17 17 17 16 16 15 14 13 13 13 13 13 12 12 12 12 12
12 11 12 12 13 13 13 12 11 15 16 16 16 16 17 17 18 18 18 17 17 17 18 18 18 17 17 17 17 17 17 16 16 16 16 16 16 15 14 13 13 13 13 12 12 12 12 12 12
11 11 10 12 12 12 12 11 12 15 14 14 15 16 16 17 17 18 18 18 18 18 18 18 18 18 17 17 17 17 17 17 16 16 16 16 15 15 14 14 13 12 12 12 12 11 11 11 12
10 9 10 11 12 11 11 10 11 13 13 13 14 15 15 16 16 17 17 18 18 18 18 18 18 18 18 18 18 17 17 17 16 16 15 15 15 15 14 14 13 12 12 12 11 11 11 11 11
8 9 9 10 11 11 10 9 10 13 12 12 14 15 15 16 16 17 17 17 17 17 17 18 18 18 18 18 18 17 17 17 16 16 16 15 15 15 14 13 13 12 12 11 11 11 11 11 11
8 9 9 10 10 10 9 9 10 11 11 11 13 14 15 16 16 16 16 17 17 17 17 17 17 17 17 17 17 17 17 17 17 16 16 15 15 15 14 13 13 12 12 12 11 11 11 11 11
9 9 9 9 9 10 8 8 9 9 10 12 13 13 14 15 15 16 16 16 16 17 17 17 17 17 17 17 17 17 17 17 17 17 17 16 15 15 14 14 13 13 12 11 11 11 11 11 11
9 9 9 9 8 8 7 9 9 9 9 10 11 11 12 13 14 15 16 16 16 16 16 16 17 17 17 17 17 16 16 16 16 16 16 16 16 15 15 14 14 13 12 12 12 11 11 11 11
9 9 9 9 8 7 7 7 8 8 7 8 10 10 11 12 13 14 14 15 15 16 16 16 16 16 16 16 16 16 16 15 16 16 16 16 16 16 15 15 14 14 13 12 12 11 11 11 11
8 8 7 7 7 6 6 7 8 7 9 9 8 10 11 12 13 13 14 14 14 15 15 15 16 16 16 16 16 16 16 16 16 16 16 16 16 16 15 15 15 14 14 13 12 12 11 11 11
7 7 5 4 5 6 6 5 7 7 9 8 7 10 11 12 13 13 13 14 14 14 14 14 15 15 15 16 16 16 16 16 15 15 15 15 15 15 15 15 15 14 14 13 12 12 11 11 11
8 7 6 6 5 5 5 5 6 7 7 7 7 9 11 12 12 12 12 12 13 13 13 14 14 14 15 15 15 15 15 15 15 15 15 15 15 15 15 15 15 14 14 13 12 11 11 11 11
7 7 7 7 7 5 5 4 6 7 7 8 9 10 11 11 11 11 11 11 11 11 12 12 13 13 14 14 14 15 15 15 15 15 14 14 15 15 15 15 15 14 14 13 12 11 11 10 10
6 5 6 4 4 4 5 5 5 8 9 9 9 10 11 11 11 10 10 10 10 10 10 11 11 12 12 13 13 14 14 14 14 14 14 14 14 14 14 14 14 14 14 13 12 11 10 10 9
6 5 4 4 5 7 6 5 6 8 9 8 7 9 10 10 10 9 9 9 9 9 9 10 10 10 11 12 12 13 13 13 13 13 13 13 13 13 14 14 14 14 13 12 11 10 9 8 8
5 5 4 3 4 5 6 7 7 7 8 7 7 9 9 9 8 8 8 8 8 8 8 8 9 9 10 11 11 12 12 13 13 13 12 12 12 12 12 13 13 13 12 11 10 9 8 7 6
6 5 4 4 3 3 3 6 8 7 7 7 8 9 9 8 7 7 7 7 7 7 7 8 8 8 9 10 10 11 11 12 12 12 11 11 11 10 10 11 11 11 10 10 9 8 6 6 5
Wind_Speed
7 5 3 4 5 4 4 6 4 5 4 3 2 3 6 6 5 3 1 9 10 11 14 18 17 16 15 15 14 14 15 17 17 17 16 15 13 11 10 10 9 9 10 11 12 12 12 11 11
3 3 5 5 5 1 6 6 6 5 5 5 1 2 1 2 1 4 5 7 11 13 14 16 18 17 15 14 14 13 14 16 17 17 16 15 13 12 11 11 10 10 10 11 11 11 10 10 10
3 5 5 5 5 7 6 6 6 6 7 3 2 1 2 1 3 6 6 9 10 11 14 17 19 17 15 14 14 13 13 15 16 17 16 15 13 12 12 11 11 11 10 10 9 9 9 9 9
4 5 5 4 8 8 7 4 2 9 8 5 2 3 2 1 2 6 10 12 12 8 13 17 19 17 16 15 14 14 14 16 16 17 16 15 14 13 12 11 11 10 9 9 8 8 8 8 8
4 5 3 3 9 7 6 6 3 5 7 5 3 3 3 3 4 9 15 15 13 9 12 16 19 17 16 15 15 14 15 16 16 16 16 14 13 12 12 11 10 9 9 8 8 8 7 7 8
5 5 5 7 11 6 5 5 3 5 5 5 2 3 4 2 5 10 14 14 13 11 11 16 18 17 16 15 15 14 15 15 16 16 15 14 13 12 12 11 10 8 8 8 8 7 7 8 8
6 6 8 8 8 8 6 5 4 5 7 6 4 4 5 1 5 10 11 12 11 10 9 11 15 17 16 16 15 15 15 15 15 15 15 14 13 12 12 11 9 8 7 7 7 7 7 8 9
6 6 7 6 7 7 4 4 4 6 8 4 6 7 7 4 10 11 11 10 10 9 8 8 12 14 15 15 15 15 14 14 14 14 13 12 12 12 12 11 9 7 6 6 6 7 8 9 10
5 5 7 8 8 5 3 3 3 1 4 4 3 4 4 8 14 13 10 9 11 11 8 7 8 11 13 14 15 15 15 14 13 12 11 10 9 10 11 11 9 7 5 5 6 7 9 10 11
5 6 9 7 7 5 2 2 2 3 3 2 2 4 4 10 15 15 14 14 15 15 13 9 8 9 11 12 13 13 13 14 12 10 10 8 7 9 11 11 9 7 6 5 6 8 9 9 10
7 8 6 5 5 4 2 1 1 1 3 2 1 4 3 6 10 13 14 14 14 13 14 12 11 10 10 8 10 10 11 12 12 12 11 9 7 8 9 9 8 6 6 6 7 9 8 8 8
6 5 5 5 4 4 3 2 2 4 6 3 1 2 2 3 6 9 10 11 10 11 13 12 12 10 10 9 8 9 9 10 10 13 14 11 7 6 7 8 8 7 7 7 7 7 8 8 8
5 4 4 2 1 2 3 4 4 6 8 5 4 3 1 2 4 5 6 7 8 12 13 13 13 13 11 9 7 9 9 10 13 14 15 14 9 6 7 7 8 8 8 8 7 8 8 7 7
7 4 2 2 2 2 4 6 5 9 8 5 5 7 6 6 6 5 6 8 10 13 14 13 14 14 12 12 10 8 11 12 13 14 15 16 13 10 8 7 7 8 9 9 9 8 7 5 6
6 5 3 4 4 4 3 8 7 10 8 8 9 9 9 9 8 9 9 9 10 11 12 14 15 15 16 15 13 10 12 13 12 13 16 17 16 14 11 7 6 9 11 12 10 9 7 5 5
6 5 4 4 4 5 5 10 5 8 6 10 10 9 9 10 10 10 10 10 10 9 10 14 14 16 18 16 14 10 12 13 12 14 16 18 18 17 13 8 7 12 13 11 7 5 5 4 4
4 5 5 4 1 2 6 8 6 4 4 9 10 10 9 9 10 11 10 10 10 10 11 11 13 15 18 18 14 11 10 11 12 14 14 17 19 19 15 9 10 14 11 7 6 4 4 4 4
7 5 5 6 2 1 5 8 11 8 6 9 10 11 10 10 12 10 10 10 10 9 10 11 11 14 15 14 12 11 10 10 10 11 14 17 19 20 16 10 12 14 8 7 6 5 3 4 5
8 7 4 3 2 4 6 9 13 11 9 11 11 12 12 12 10 8 9 9 8 8 10 11 11 12 11 10 13 13 15 13 12 12 15 18 18 19 16 9 10 11 11 11 10 6 5 3 3
6 5 2 2 4 4 6 10 12 11 9 9 10 11 11 11 11 9 8 8 8 9 9 10 11 11 12 12 13 10 11 10 13 11 11 17 18 19 17 13 13 12 10 11 9 7 5 3 4
4 4 3 1 5 4 7 9 8 6 4 6 7 8 9 10 12 11 10 8 8 8 9 9 11 11 12 12 8 5 5 4 6 9 12 13 17 19 17 15 14 14 13 13 12 10 9 6 3
4 2 5 3 3 4 5 6 9 6 9 7 7 7 8 8 8 8 9 9 8 8 7 8 9 10 10 10 10 12 12 13 13 13 13 13 16 18 19 17 15 16 13 14 13 11 7 8 5
5 5 6 4 4 2 2 3 10 5 5 6 8 9 9 8 7 7 7 8 8 7 6 5 6 8 9 9 12 13 15 14 10 9 11 13 13 15 16 16 15 16 14 14 14 11 9 6 7
8 7 6 5 4 2 3 5 8 4 4 8 9 10 10 9 9 9 9 9 8 8 7 6 5 7 8 9 11 13 16 15 11 12 13 12 9 11 14 14 15 15 13 14 14 13 13 8 8
5 5 3 3 3 5 2 4 9 6 6 6 9 10 10 9 10 12 13 13 12 12 10 8 7 8 7 8 9 12 15 15 16 15 15 13 10 11 16 16 15 14 12 12 11 12 12 10 11
4 5 5 4 3 4 2 6 8 7 8 7 6 7 8 10 10 10 11 11 10 11 10 9 9 9 8 7 9 10 11 10 10 13 12 14 14 15 15 16 14 13 12 12 11 9 9 8 9
6 4 4 6 3 3 5 7 9 5 2 3 6 8 10 11 11 11 11 11 11 11 11 9 9 9 9 8 8 8 8 9 10 11 11 10 10 9 12 13 12 11 12 12 13 9 10 10 8
5 7 5 5 4 4 6 5 5 6 4 7 9 11 12 12 13 13 12 12 11 11 11 10 9 9 9 8 7 6 7 8 8 8 10 10 9 9 12 13 13 12 12 12 11 11 10 11 9
5 4 5 4 3 4 4 6 6 6 4 7 10 11 12 12 11 11 12 12 12 11 11 10 9 9 8 7 7 6 5 5 5 6 8 7 7 10 12 12 13 13 13 13 12 12 12 12 10
4 6 6 5 4 3 2 8 6 6 7 7 10 11 10 9 10 11 12 12 12 11 11 10 10 9 8 7 6 5 3 2 3 4 5 7 9 10 11 12 12 13 13 13 14 14 12 12 11
Wind_Direction
359 5 62 56 53 48 257 251 243 271 261 259 232 181 165 166 174 217 73 139 134 143 154 157 158 155 153 151 149 149 149 147 143 138 133 127 122 117 114 113 114 112 103 91 89 94 92 90 91
8 26 56 63 97 217 260 246 243 247 274 311 334 91 164 200 157 129 138 159 143 146 151 154 156 154 153 152 152 152 154 153 148 143 137 132 128 124 120 117 115 111 102 92 87 89 92 92 94
77 48 84 89 150 193 235 235 231 291 293 289 341 331 214 236 171 174 174 152 141 142 149 156 155 154 154 154 155 157 159 156 152 146 142 138 134 130 125 121 117 112 108 103 100 100 98 96 95
88 58 61 118 219 218 222 246 284 329 342 357 5 309 272 331 200 169 142 145 141 136 147 158 155 155 155 156 158 162 164 161 155 150 147 145 140 134 128 123 120 118 117 117 114 110 103 95 90
66 93 111 213 238 237 238 262 286 323 312 328 347 267 261 357 76 125 140 148 148 141 148 159 157 157 157 158 159 162 164 162 159 157 155 153 147 140 135 133 132 129 125 121 118 111 100 86 77
77 95 147 216 240 248 250 249 290 285 284 298 252 233 264 55 116 140 146 151 152 149 151 163 163 161 161 161 162 164 167 166 166 165 164 162 157 150 146 144 143 138 132 128 121 111 96 79 68
124 133 178 203 237 254 247 207 221 251 274 264 208 211 278 162 147 145 145 146 149 151 154 165 165 164 164 166 167 169 170 171 171 172 172 171 165 161 158 155 154 149 143 138 127 112 93 78 72
138 133 169 199 214 244 238 199 212 207 252 260 177 189 241 205 147 141 140 144 152 157 163 168 166 165 166 170 173 175 175 177 178 178 177 175 172 170 168 165 165 162 157 145 132 117 97 81 80
109 128 187 198 195 230 224 212 239 258 258 290 215 230 284 131 145 146 149 160 171 177 180 174 168 169 170 172 178 180 180 182 183 182 178 175 177 179 176 173 174 171 162 144 131 117 100 86 83
137 176 204 197 188 186 177 196 286 358 330 316 345 6 48 134 158 165 172 179 186 191 192 189 181 175 173 179 180 180 181 184 183 180 178 176 180 181 176 175 175 170 158 135 123 109 97 94 89
171 189 197 211 194 180 165 244 286 19 289 241 329 343 61 147 170 182 187 192 195 195 198 199 195 186 182 181 177 180 182 182 183 182 180 175 169 165 161 160 162 152 130 106 103 94 96 98 96
174 208 192 201 184 170 181 226 260 212 229 209 266 336 73 163 196 202 204 206 204 204 205 203 202 198 194 189 185 185 185 186 185 187 183 172 161 156 154 155 152 141 133 122 114 108 106 100 99
178 193 200 227 224 192 193 226 245 249 250 261 281 298 239 227 251 247 222 208 209 216 214 208 204 205 201 196 195 195 196 197 195 191 187 180 172 168 166 163 156 150 146 141 131 124 114 104 98
190 197 234 243 236 235 230 252 230 258 262 259 247 258 261 247 234 242 242 221 208 216 218 213 210 209 205 205 204 203 202 202 199 198 192 187 182 177 174 171 165 161 159 153 144 135 124 111 108
143 158 249 250 216 236 232 270 227 244 256 263 257 254 260 256 246 233 230 227 219 215 214 212 213 210 210 210 208 207 205 203 205 204 196 192 187 183 181 179 175 168 159 147 134 123 115 109 104
116 140 209 256 202 213 198 262 248 251 254 265 268 263 256 257 251 247 240 234 231 224 217 215 213 210 212 213 210 209 206 205 208 204 199 196 192 188 183 182 180 168 157 149 139 131 112 110 115
137 169 200 266 229 212 209 260 270 290 253 265 274 274 270 268 262 254 249 240 234 228 226 220 214 210 211 213 211 209 205 206 207 203 202 199 195 190 186 184 176 165 158 154 149 132 131 135 133
174 167 184 222 310 311 252 267 281 280 267 266 272 276 274 268 262 252 247 244 241 233 231 231 222 217 211 209 210 210 209 209 205 205 206 198 196 191 185 180 171 165 160 159 152 136 115 125 135
153 150 179 237 339 329 276 279 281 278 267 262 263 266 269 271 268 255 245 246 245 237 228 228 226 222 210 203 207 211 215 214 211 210 205 199 195 189 184 177 170 171 174 173 157 134 128 128 144
121 132 171 309 360 347 306 284 271 266 249 248 260 271 279 287 294 284 264 254 243 237 228 226 225 223 212 209 208 209 211 215 213 208 202 198 193 188 187 179 179 179 173 166 165 149 137 136 167
128 148 169 261 352 28 337 306 297 297 317 309 297 294 298 295 298 303 303 288 274 259 242 234 227 225 218 211 205 198 194 195 198 205 207 199 192 189 189 184 179 181 178 180 179 167 153 151 174
171 156 137 111 49 330 21 318 293 305 327 328 336 337 327 322 315 314 318 315 302 281 268 248 239 233 227 213 204 202 209 215 213 211 210 200 193 191 191 186 183 183 184 184 183 176 163 146 154
136 97 94 94 110 336 358 223 284 336 335 336 335 339 340 340 343 344 340 326 317 313 304 282 262 248 238 222 212 211 218 221 214 206 203 200 196 194 191 186 186 187 187 184 180 176 170 159 156
121 88 71 61 72 277 232 196 280 287 275 308 320 332 339 342 351 354 351 351 346 340 333 323 301 276 258 238 224 218 220 219 208 203 204 201 195 194 193 189 190 190 187 184 182 180 177 169 156
111 108 47 357 7 249 199 220 255 268 267 277 298 314 326 339 352 353 351 349 344 340 334 325 314 295 281 260 242 228 224 221 215 210 208 201 195 197 197 193 192 190 188 182 175 175 176 167 160
155 144 164 201 236 284 223 239 258 270 281 282 290 309 328 338 340 338 333 330 327 323 322 319 312 298 288 271 258 247 234 224 220 214 209 206 206 205 197 193 191 185 178 174 168 167 162 154 148
121 116 125 119 120 279 273 281 302 300 350 347 337 336 332 328 326 326 324 322 318 314 309 306 303 298 293 281 269 261 242 224 217 210 208 207 205 194 185 183 179 172 168 164 161 160 152 142 133
121 134 109 130 166 264 295 279 263 295 329 337 334 329 323 322 323 325 325 321 316 310 304 303 295 289 287 286 273 262 249 232 220 206 205 201 189 174 169 171 166 160 156 155 150 144 140 130 121
120 108 105 105 142 168 287 281 225 229 281 305 305 305 306 310 317 322 321 319 315 314 313 311 307 299 296 294 287 273 260 239 212 206 203 187 168 160 163 163 158 154 151 149 144 138 135 125 118
151 156 145 149 190 173 211 271 269 243 270 282 291 299 306 318 325 324 323 323 323 323 323 320 316 310 303 303 300 286 266 227 197 186 166 151 149 150 150 148 148 147 145 143 140 134 127 124 120
Height
1517 1518 1519 1520 1524 1535 1535 1526 1519 1515 1511 1508 1507 1507 1507 1509 1512 1515 1509 1507 1510 1513 1515 1518 1520 1523 1526 1529 1531 1533 1535 1536 1537 1538 1539 1540 1541 1541 1541 1540 1541 1542 1544 1545 1546 1547 1547 1548 1548
1516 1518 1520 1520 1531 1540 1535 1523 1518 1513 1510 1508 1507 1506 1506 1506 1507 1507 1507 1509 1512 1514 1516 1518 1521 1523 1526 1528 1531 1533 1535 1536 1537 1538 1539 1540 1541 1541 1541 1541 1541 1543 1544 1545 1546 1548 1549 1549 1549
1514 1516 1519 1522 1532 1536 1527 1516 1514 1511 1509 1507 1507 1506 1507 1507 1507 1508 1509 1510 1512 1515 1517 1519 1522 1524 1526 1528 1531 1533 1534 1536 1538 1539 1539 1540 1541 1541 1542 1542 1543 1544 1545 1547 1548 1549 1550 1550 1551
1513 1516 1518 1526 1528 1523 1517 1512 1512 1510 1508 1508 1508 1507 1506 1507 1508 1509 1510 1511 1512 1515 1517 1520 1522 1525 1527 1529 1531 1532 1534 1536 1537 1539 1540 1541 1542 1542 1543 1544 1544 1545 1546 1548 1549 1550 1551 1552 1552
1510 1513 1521 1527 1523 1516 1513 1510 1511 1511 1510 1509 1510 1508 1506 1507 1508 1509 1510 1511 1513 1515 1517 1520 1523 1525 1528 1529 1531 1532 1534 1535 1537 1539 1540 1541 1542 1543 1544 1545 1546 1547 1548 1549 1550 1551 1552 1552 1553
1508 1511 1525 1526 1518 1512 1511 1509 1510 1510 1509 1509 1510 1508 1506 1507 1508 1509 1511 1512 1514 1515 1517 1520 1523 1526 1528 1530 1531 1533 1534 1535 1537 1539 1540 1542 1543 1544 1545 1546 1547 1548 1549 1550 1551 1552 1553 1553 1554
1505 1512 1518 1519 1515 1513 1509 1508 1508 1508 1508 1508 1509 1508 1506 1506 1508 1509 1511 1512 1514 1516 1518 1520 1523 1526 1528 1530 1531 1533 1534 1535 1537 1539 1540 1542 1543 1545 1546 1547 1548 1549 1550 1551 1552 1553 1553 1554 1554
1501 1508 1514 1516 1514 1510 1506 1505 1505 1506 1505 1506 1507 1506 1505 1506 1507 1508 1510 1512 1514 1516 1518 1520 1523 1525 1527 1529 1531 1533 1534 1535 1537 1539 1540 1542 1544 1545 1546 1548 1549 1550 1551 1552 1553 1553 1554 1554 1555
1500 1509 1512 1510 1510 1506 1503 1504 1504 1503 1503 1504 1504 1505 1505 1505 1506 1507 1509 1511 1513 1515 1517 1519 1522 1524 1527 1529 1530 1532 1534 1535 1537 1538 1540 1542 1543 1545 1546 1548 1549 1550 1551 1552 1553 1553 1554 1555 1555
1498 1505 1504 1500 1501 1501 1502 1502 1502 1502 1502 1502 1503 1503 1503 1503 1505 1506 1507 1509 1511 1513 1516 1518 1521 1523 1525 1527 1529 1531 1533 1534 1536 1537 1539 1541 1543 1544 1546 1548 1549 1550 1551 1552 1553 1553 1554 1554 1555
1494 1498 1497 1497 1497 1499 1500 1501 1501 1502 1502 1502 1502 1503 1502 1503 1504 1505 1507 1508 1510 1513 1515 1517 1519 1522 1523 1525 1527 1529 1531 1533 1534 1536 1538 1539 1541 1543 1545 1546 1548 1549 1550 1551 1552 1553 1553 1554 1554
1493 1494 1493 1494 1495 1497 1498 1499 1500 1500 1501 1502 1502 1503 1503 1504 1504 1505 1507 1508 1510 1512 1514 1516 1518 1520 1521 1523 1525 1527 1529 1530 1532 1534 1536 1537 1539 1541 1543 1545 1547 1548 1549 1550 1551 1552 1553 1553 1553
1491 1492 1492 1493 1494 1495 1496 1497 1498 1497 1499 1500 1501 1502 1503 1504 1505 1506 1507 1508 1509 1510 1512 1514 1516 1518 1519 1521 1522 1524 1525 1528 1530 1532 1533 1534 1536 1539 1541 1543 1545 1546 1547 1549 1550 1551 1552 1552 1552
1489 1491 1492 1492 1493 1493 1495 1494 1496 1494 1496 1496 1497 1499 1500 1502 1504 1505 1505 1506 1507 1508 1510 1512 1513 1515 1517 1518 1519 1521 1523 1525 1527 1528 1530 1531 1533 1536 1538 1540 1542 1544 1545 1547 1548 1549 1550 1550 1550
1487 1491 1492 1491 1492 1492 1494 1493 1493 1492 1493 1492 1493 1495 1496 1498 1499 1501 1502 1504 1505 1506 1507 1508 1510 1511 1513 1514 1516 1518 1520 1521 1523 1524 1526 1528 1530 1532 1535 1537 1539 1541 1542 1544 1545 1547 1547 1548 1548
1487 1492 1495 1491 1490 1490 1496 1494 1490 1488 1489 1488 1488 1489 1490 1492 1493 1495 1497 1499 1500 1501 1503 1504 1505 1507 1508 1510 1512 1514 1516 1518 1519 1521 1522 1524 1526 1528 1530 1533 1535 1537 1539 1541 1542 1544 1545 1545 1546
1489 1496 1495 1492 1489 1489 1492 1491 1487 1486 1486 1485 1484 1484 1484 1485 1487 1489 1491 1493 1494 1495 1497 1499 1500 1501 1503 1504 1506 1509 1511 1513 1515 1517 1518 1519 1521 1523 1525 1528 1531 1533 1535 1537 1539 1540 1542 1542 1543
1492 1493 1494 1494 1490 1490 1491 1490 1484 1482 1483 1482 1480 1479 1479 1479 1481 1484 1486 1487 1488 1489 1490 1492 1494 1495 1497 1498 1500 1502 1504 1507 1509 1511 1513 1515 1516 1518 1521 1523 1526 1528 1530 1533 1535 1537 1538 1539 1540
1487 1491 1493 1492 1490 1490 1489 1488 1482 1477 1478 1477 1475 1474 1473 1473 1475 1478 1479 1480 1481 1482 1483 1484 1486 1488 1490 1491 1492 1494 1496 1499 1501 1504 1507 1509 1511 1513 1516 1518 1521 1523 1525 1528 1530 1532 1534 1535 1536
1486 1491 1492 1492 1491 1491 1491 1487 1477 1471 1471 1470 1470 1469 1469 1468 1469 1470 1472 1473 1474 1475 1476 1477 1479 1481 1482 1484 1485 1487 1489 1491 1494 1497 1500 1503 1505 1507 1510 1512 1515 1517 1520 1523 1525 1527 1529 1530 1532
1486 1490 1492 1492 1493 1494 1494 1484 1476 1468 1468 1468 1467 1467 1466 1466 1464 1464 1465 1465 1466 1467 1468 1470 1472 1474 1475 1477 1479 1480 1482 1483 1486 1489 1492 1495 1498 1501 1504 1506 1509 1511 1514 1516 1519 1522 1524 1526 1527
1486 1488 1490 1493 1497 1501 1500 1498 1479 1472 1470 1467 1466 1465 1464 1463 1462 1462 1461 1461 1461 1461 1462 1463 1465 1467 1469 1470 1471 1472 1473 1474 1476 1481 1484 1487 1490 1493 1497 1499 1502 1505 1508 1510 1513 1516 1518 1520 1522
1487 1489 1493 1497 1500 1504 1505 1503 1483 1477 1471 1468 1467 1465 1463 1462 1461 1460 1459 1459 1459 1458 1458 1458 1459 1460 1462 1464 1465 1465 1466 1467 1470 1473 1476 1479 1481 1485 1489 1492 1495 1498 1501 1504 1507 1509 1512 1514 1516
1487 1493 1500 1505 1506 1507 1504 1507 1490 1479 1473 1471 1467 1464 1462 1460 1459 1458 1457 1456 1456 1455 1455 1455 1455 1455 1456 1457 1458 1458 1459 1460 1462 1464 1467 1470 1473 1476 1480 1484 1487 1490 1493 1496 1500 1503 1506 1508 1511
1487 1494 1503 1505 1514 1509 1506 1507 1491 1475 1472 1471 1468 1464 1462 1460 1458 1456 1455 1453 1452 1451 1451 1450 1450 1450 1451 1451 1451 1451 1452 1453 1454 1455 1458 1461 1463 1466 1470 1474 1478 1482 1485 1489 1493 1496 1499 1502 1504
1488 1490 1499 1500 1503 1507 1507 1504 1484 1473 1469 1467 1466 1464 1462 1460 1458 1456 1454 1452 1450 1448 1446 1445 1445 1444 1445 1445 1445 1445 1445 1446 1446 1448 1450 1453 1455 1458 1462 1466 1470 1474 1478 1482 1485 1489 1493 1496 1498
1490 1496 1497 1508 1514 1512 1502 1496 1482 1469 1467 1466 1465 1463 1461 1459 1457 1454 1451 1449 1446 1443 1441 1440 1438 1438 1438 1438 1438 1438 1438 1439 1440 1441 1443 1445 1448 1451 1454 1458 1462 1466 1470 1474 1478 1482 1485 1489 1492
1489 1495 1503 1508 1507 1499 1496 1495 1485 1471 1467 1466 1464 1462 1460 1458 1455 1451 1448 1444 1441 1438 1435 1434 1432 1431 1431 1431 1431 1431 1432 1433 1434 1435 1436 1438 1441 1443 1446 1450 1454 1458 1462 1466 1471 1475 1478 1482 1485
1492 1496 1502 1508 1507 1506 1499 1486 1473 1471 1468 1468 1465 1462 1459 1456 1453 1449 1444 1440 1436 1433 1430 1427 1426 1425 1424 1424 1424 1425 1426 1427 1427 1429 1430 1432 1434 1437 1439 1443 1447 1450 1455 1459 1464 1468 1471 1475 1479
1488 1493 1500 1506 1510 1511 1512 1493 1467 1468 1466 1465 1463 1460 1457 1454 1450 1445 1441 1436 1432 1428 1425 1422 1420 1419 1418 1418 1418 1419 1420 1421 1422 1423 1424 1426 1428 1431 1434 1437 1441 1445 1449 1454 1458 1461 1466 1470 1474